CHINASAT 2C (ZX 2C)     
1 41021U 15063A   19254.81854858 -.00000343  00000-0  00000-0 0  9992
2 41021   0.0419 302.0141 0000811  56.1630  30.4079  1.00268578 14247
CZ-3B R/B               
1 41022U 15063B   19258.77248601  .00002538  00000-0  37645-3 0  9990
2 41022  26.9591  87.3575 7080033  28.7704 356.5642  2.55093153 33467